Location: Dattensoll
(49.9928°N, 9.8954°E)
Time: 21:35:21
(UTC+00:00)

Cosmos 1315 Rocket - Pass Details

Date: 19 May 2025
Orbit: 498 x 525 km, 81.2° (Epoch: 15 June)

Event Time Altitude Azimuth Distance (km) Brightness Sun altitude
Exits shadow 20:55:29 21° 165° (SSE) 1,217 4.0 -13.4°
Maximum altitude 20:57:49 51° 97° (E) 670 3.0 -13.6°
Drops below altitude 10° 21:01:37 10° 21° (NNE) 1,774 5.9 -13.9°
Sets 21:03:48 0° 17° (NNE) 2,665 7.0 -14.1°
